Notices

What's New in latest Release from April 7th, 2021:

- Updated Glossary, including Speed of Maximum Gust, and Total Hourly Precipitation

- Updated national and regional climate services offices contacts and prices information

- Addition of station inventory lists for 1981-2010, 1971-2000, and 1961-1990 Normals.

Please note that as of June 10, 2021 UTC dates are available for all years 2004-present, and DBA is working on populating the remaining years (2003 to 1953).

If you haven't already, please take our survey and provide feedback about our website: https://eccc.sondage-survey.ca/f/LanguageSelection.aspx?s=442ca660-fcf1-47c0-95a9-59707d6fd709

Hourly Data Report for April 26, 2020

CLYDE RIVER A
NUNAVUT
Current Station Operator: NAVCAN

70°29'09.000" N
68°31'01.000" W
26.50 m
2400804
71090
YCY

Download Data

Hourly Data (April 2020)
Hourly Data Report for April 26, 2020
TIME
LST
Temp Definition
°C
Dew Point Definition
°C
Rel Hum Definition
%
Precip. Amount Definition
mm

Wind Dir Definition
10's deg

Wind Spd Definition
km/h
Visibility Definition
km
Stn Press Definition
kPa
Hmdx Definition


Wind Chill Definition


Weather Definition


00:00 -9.7 -11.2 89 0.0 33 11 16.1 100.45   -15 LegendNANA
01:00 -10.3 -11.8 89 0.0 LegendMM 5 16.1 100.40   -13 LegendNANA
02:00 -10.2 -12.0 87 0.0 33 17 16.1 100.34   -17 LegendNANA
03:00 -9.4 -11.6 84 0.0 33 15 16.1 100.29   -16 LegendNANA
04:00 -9.2 -11.0 87 0.0 33 21 4.8 100.27   -17 Snow
05:00 -8.9 -10.3 90 0.0 31 18 6.4 100.22   -16 Snow
06:00 -8.3 -10.1 87 0.0 33 18 12.9 100.17   -15 Snow
07:00 -8.3 -9.4 92 0.0 33 22 4.8 100.13   -16 Snow
08:00 -8.1 -9.6 89 0.0 33 21 16.1 100.06   -16 LegendNANA
09:00 -8.1 -9.3 91 0.0 34 17 14.5 100.04   -15 LegendNANA
10:00 -7.9 -9.3 90 0.0 36 11 16.1 99.99   -13 LegendNANA
11:00 -7.8 -9.1 90 0.0 3 5 16.1 99.96   -10 LegendNANA
12:00 -7.9 -9.4 89 0.0   0 16.1 99.91     LegendNANA
13:00 -7.6 -9.1 89 0.0 13 9 16.1 99.88   -12 LegendNANA
14:00 -7.5 -8.7 91 0.0 14 15 16.1 99.86   -14 LegendNANA
15:00 -7.3 -8.4 92 0.0 13 8 16.1 99.84   -11 LegendNANA
16:00 -6.8 -8.0 91 0.0 14 8 16.1 99.79   -11 LegendNANA
17:00 -6.4 -8.5 85 0.0 LegendMM 4 16.1 99.76   -8 LegendNANA
18:00 -7.3 -8.7 90 0.0 LegendMM 4 16.1 99.74   -9 LegendNANA
19:00 -4.8 -8.2 77 0.0 21 21 16.1 99.69   -11 LegendNANA
20:00 -7.0 -9.7 81 0.0 21 15 16.1 99.69   -13 LegendNANA
21:00 -8.0 -10.7 81 0.0 26 13 16.1 99.70   -14 LegendNANA
22:00 -11.6 -12.9 90 0.0 33 11 16.1 99.68   -18 LegendNANA
23:00 -12.1 -13.0 93 0.0 35 9 16.1 99.69   -17 LegendNANA

Notes on Data Quality.

Legend

  • E = Estimated
  • M = Missing
  • NA = Not Available*
  • [empty] = Indicates an unobserved value
Date modified: